TimePDT,TemperatureF,Dew PointF,Humidity,Sea Level PressureIn,VisibilityMPH,Wind Direction,Wind SpeedMPH,Gust SpeedMPH,PrecipitationIn,Events,Conditions,WindDirDegrees,DateUTC
12:52 AM,44.1,28.0,53,30.02,10.0,Calm,Calm,-,N/A,,Clear,0,2013-03-17 07:52:00
1:52 AM,43.0,27.0,53,30.02,10.0,Calm,Calm,-,N/A,,Clear,0,2013-03-17 08:52:00
2:52 AM,42.1,27.0,55,30.02,10.0,SE,3.5,-,N/A,,Clear,140,2013-03-17 09:52:00
3:52 AM,42.1,25.0,51,30.01,10.0,Calm,Calm,-,N/A,,Clear,0,2013-03-17 10:52:00
4:52 AM,39.0,23.0,53,30.00,10.0,East,3.5,-,N/A,,Clear,90,2013-03-17 11:52:00
5:52 AM,41.0,23.0,49,30.01,10.0,ESE,3.5,-,N/A,,Clear,120,2013-03-17 12:52:00
6:52 AM,41.0,23.0,49,30.03,10.0,SSE,3.5,-,N/A,,Clear,150,2013-03-17 13:52:00
7:52 AM,41.0,24.1,51,30.05,10.0,Calm,Calm,-,N/A,,Clear,0,2013-03-17 14:52:00
8:52 AM,44.1,25.0,47,30.05,10.0,Calm,Calm,-,N/A,,Clear,0,2013-03-17 15:52:00
9:52 AM,48.0,10.0,22,30.04,10.0,Calm,Calm,-,N/A,,Clear,0,2013-03-17 16:52:00
10:52 AM,48.0,10.9,22,30.05,10.0,WNW,4.6,-,N/A,,Clear,300,2013-03-17 17:52:00
11:52 AM,50.0,12.9,23,30.06,10.0,Variable,3.5,-,N/A,,Clear,0,2013-03-17 18:52:00
12:52 PM,51.1,16.0,25,30.04,10.0,WNW,4.6,-,N/A,,Clear,300,2013-03-17 19:52:00
1:52 PM,53.1,24.1,32,30.02,10.0,Variable,6.9,-,N/A,,Clear,0,2013-03-17 20:52:00
2:52 PM,52.0,28.9,41,30.02,10.0,SW,8.1,-,N/A,,Clear,220,2013-03-17 21:52:00
3:52 PM,51.1,34.0,52,30.02,10.0,Variable,6.9,-,N/A,,Clear,0,2013-03-17 22:52:00
4:52 PM,51.1,30.9,46,30.04,10.0,Variable,4.6,-,N/A,,Clear,0,2013-03-17 23:52:00
5:52 PM,50.0,28.0,43,30.03,10.0,SW,5.8,-,N/A,,Clear,230,2013-03-18 00:52:00
6:52 PM,46.9,28.0,48,30.04,10.0,Calm,Calm,-,N/A,,Clear,0,2013-03-18 01:52:00
7:52 PM,44.1,28.9,55,30.04,10.0,North,4.6,-,N/A,,Clear,350,2013-03-18 02:52:00
8:52 PM,44.1,28.0,53,30.04,10.0,NE,3.5,-,N/A,,Clear,50,2013-03-18 03:52:00
9:52 PM,44.1,28.0,53,30.04,10.0,NE,3.5,-,N/A,,Clear,50,2013-03-18 04:52:00
10:52 PM,45.0,26.1,48,30.04,10.0,Calm,Calm,-,N/A,,Clear,0,2013-03-18 05:52:00
11:52 PM,45.0,25.0,46,30.03,10.0,ENE,3.5,-,N/A,,Clear,60,2013-03-18 06:52:00